Location: Bodest
(46.3000°N, 22.5667°E)
Time: 22:55:14
(UTC+00:00)

Cosmos 1980 Rocket - Pass Details

Date: 16 October 2021
Orbit: 828 x 851 km, 71.0° (Epoch: 26 November)

Event Time Altitude Azimuth Distance (km) Brightness Sun altitude
Rises 17:16:02 0° 206° (SSW) 3,376 5.6 -17.1°
Reaches altitude 10° 17:18:27 10° 206° (SSW) 2,449 4.9 -17.5°
Maximum altitude 17:24:06 86° 295° (WNW) 852 2.2 -18.5°
Drops below altitude 10° 17:29:49 10° 26° (NNE) 2,481 4.4 -19.5°
Sets 17:32:17 0° 27° (NNE) 3,422 5.2 -19.9°
